星链-38038(STARLINK-38038)

导读

STARLINK-38038(NORAD编号100116)是美国太空探索技术公司(SpaceX)星链低轨互联网星座的组成卫星。作为第二代星链V2 Mini批次卫星,其运行于约550公里高度的近地轨道,轨道周期约96分钟,单星设计带宽达1Tbps,具备自主避碰与寿命末期主动离轨能力。 该卫星核心任务是为全球偏远、低密度人口区域提供低延迟高速互联网接入,也可支撑应急通信场景,同时星链星座的军事应用潜力也受到广泛关注。截至2026年7月,未查询到该卫星存在解体、离轨等异常记录,处于正常在轨运行状态,参与星链网络的全球服务覆盖。

基本信息
目录编号:
100116
目录名称:
STARLINK-38038
国际标识:
2026-166R
轨道中心:
EARTH
卫星名称:
星链-38038
卫星全名:
星链-38038(STARLINK-38038)
卫星状态:
在轨 (已飞行56 天)
发射日期:
2026-07-21 UTC
国别 :
美国 (US)
星等 :
--
该卫星已列入 空间交会检测服务 Space Conjunction Data Service (SCDS) ,当前飞行风险评估等级: 无高风险
轨道信息
数据来源 国际轨道数据 AOE轨道数据
星历时间 2026-09-15T02:37:12+0800
19小时前
查看轨道信息
2026-09-12T15:00:00+0800
3天前
查看轨道信息
半长轴 6722.238km 6722.203km
偏心率 0.0001422 0.0001726
轨道倾角 97.283° 97.286°
近地点辐角 100.683° 73.365°
升交点赤经 275.863° 273.258°
平近点角 259.459° 249.456°
近地点 343.145km 342.905km
远地点 345.057km 345.227km
周期 91.418分钟 91.417分钟
每日圈数 15.751865 15.751989
详细信息
固有亮度:
5
最大亮度:
2.5
卫星平台:
Starlink V1.0
覆盖范围:
全球
运营商:
太空探索技术公司
运营商所在国:
美国
制造商(研发单位):
太空探索技术公司
制造商所在国:
美国
使用方式:
暂无
卫星简介
Starlink 计划是 SpaceX 推出的全球卫星互联网项目,通过发射低轨道卫星,为全球尤其是偏远地区提供高速、低延迟的互联网服务。自 2019 年起,Starlink 已部署数千颗卫星,旨在缩小全球数字鸿沟,推动互联网普及。该项目还为军事、航空等行业提供通信支持,带来广泛经济效益。
2D轨道图
3D轨道图
轨道高度分析图
轨道倾角分析图
轨道综合分析图
查看轨道综合分析图
与全量物体交会距离演化趋势 订阅飞行安全评估服务
与全量物体交会风险概率演化趋势 订阅飞行安全评估服务